TimeEDT,TemperatureF,Dew PointF,Humidity,Sea Level PressureIn,VisibilityMPH,Wind Direction,Wind SpeedMPH,Gust SpeedMPH,PrecipitationIn,Events,Conditions,WindDirDegrees,DateUTC
12:51 AM,39.9,34.0,79,29.82,-9999.0,NNW,15.0,27.6,N/A,,Unknown,330,2012-10-26 04:51:00
1:51 AM,37.9,34.0,86,29.86,-9999.0,NNW,20.7,25.3,0.01,,Unknown,340,2012-10-26 05:51:00
2:51 AM,37.9,33.1,83,29.89,-9999.0,NW,9.2,29.9,0.01,,Unknown,310,2012-10-26 06:51:00
3:51 AM,39.0,32.0,76,29.91,-9999.0,NW,9.2,21.9,0.01,,Unknown,310,2012-10-26 07:51:00
4:51 AM,39.0,30.9,73,29.94,-9999.0,Variable,6.9,18.4,N/A,,Unknown,0,2012-10-26 08:51:00
5:51 AM,39.0,28.9,67,29.96,-9999.0,NW,11.5,28.8,N/A,,Unknown,320,2012-10-26 09:51:00
6:51 AM,39.0,28.9,67,29.97,-9999.0,NW,9.2,27.6,N/A,,Unknown,310,2012-10-26 10:51:00
7:51 AM,37.9,30.9,76,30.00,-9999.0,WNW,8.1,16.1,N/A,,Unknown,300,2012-10-26 11:51:00
8:51 AM,39.9,30.9,70,30.02,-9999.0,WNW,10.4,17.3,N/A,,Unknown,290,2012-10-26 12:51:00
9:51 AM,41.0,30.0,65,30.05,-9999.0,NW,8.1,21.9,N/A,,Unknown,320,2012-10-26 13:51:00
10:51 AM,41.0,30.0,65,30.09,-9999.0,NW,10.4,23.0,N/A,,Unknown,320,2012-10-26 14:51:00
11:51 AM,39.9,30.9,70,30.12,-9999.0,NNW,16.1,23.0,N/A,,Unknown,330,2012-10-26 15:51:00
12:51 PM,39.9,28.9,65,30.14,-9999.0,NW,13.8,25.3,N/A,,Unknown,320,2012-10-26 16:51:00
1:51 PM,42.1,27.0,55,30.15,-9999.0,NNW,17.3,26.5,N/A,,Unknown,340,2012-10-26 17:51:00
2:51 PM,41.0,27.0,57,30.17,-9999.0,NW,15.0,31.1,N/A,,Unknown,320,2012-10-26 18:51:00
3:51 PM,39.0,26.1,60,30.19,-9999.0,NNW,15.0,23.0,N/A,,Unknown,340,2012-10-26 19:51:00
4:51 PM,39.0,27.0,62,30.19,-9999.0,Variable,6.9,21.9,N/A,,Unknown,0,2012-10-26 20:51:00
5:51 PM,39.0,25.0,57,30.20,-9999.0,NW,9.2,19.6,N/A,,Unknown,310,2012-10-26 21:51:00
6:51 PM,39.0,26.1,60,30.21,-9999.0,Variable,5.8,24.2,N/A,,Unknown,0,2012-10-26 22:51:00
7:51 PM,39.0,26.1,60,30.22,-9999.0,NW,9.2,-,N/A,,Unknown,320,2012-10-26 23:51:00
8:51 PM,39.0,24.1,55,30.23,-9999.0,NNW,9.2,19.6,N/A,,Unknown,330,2012-10-27 00:51:00
9:51 PM,39.0,24.1,55,30.24,-9999.0,NNW,9.2,17.3,N/A,,Unknown,330,2012-10-27 01:51:00
10:51 PM,37.9,25.0,60,30.25,-9999.0,WNW,6.9,-,N/A,,Unknown,300,2012-10-27 02:51:00
11:51 PM,37.9,23.0,55,30.27,-9999.0,NW,9.2,-,N/A,,Unknown,310,2012-10-27 03:51:00